TimeEDT,TemperatureF,Dew PointF,Humidity,Sea Level PressureIn,VisibilityMPH,Wind Direction,Wind SpeedMPH,Gust SpeedMPH,PrecipitationIn,Events,Conditions,WindDirDegrees,DateUTC
12:15 AM,73.4,64.4,73,29.63,8.0,NNW,15.0,24.2,N/A,,Overcast,330,2012-10-27 04:15:00
12:35 AM,73.4,64.4,73,29.62,8.0,NNW,17.3,27.6,N/A,,Mostly Cloudy,330,2012-10-27 04:35:00
12:55 AM,73.4,64.4,73,29.62,8.0,NNW,15.0,20.7,N/A,,Mostly Cloudy,340,2012-10-27 04:55:00
1:15 AM,73.4,64.4,73,29.61,8.0,NNW,17.3,28.8,N/A,,Overcast,340,2012-10-27 05:15:00
1:35 AM,73.4,64.4,73,29.59,8.0,NNW,17.3,24.2,N/A,,Mostly Cloudy,340,2012-10-27 05:35:00
1:55 AM,73.4,64.4,73,29.59,7.0,NNW,13.8,24.2,N/A,,Mostly Cloudy,330,2012-10-27 05:55:00
2:15 AM,71.6,64.4,78,29.59,8.0,NNW,12.7,23.0,N/A,,Mostly Cloudy,330,2012-10-27 06:15:00
2:35 AM,71.6,64.4,78,29.58,8.0,NNW,15.0,27.6,N/A,,Mostly Cloudy,330,2012-10-27 06:35:00
2:55 AM,71.6,64.4,78,29.58,8.0,NW,15.0,20.7,N/A,,Mostly Cloudy,320,2012-10-27 06:55:00
3:15 AM,71.6,64.4,78,29.56,9.0,NW,18.4,25.3,N/A,,Mostly Cloudy,320,2012-10-27 07:15:00
3:35 AM,71.6,64.4,78,29.56,8.0,NW,15.0,-,N/A,,Mostly Cloudy,320,2012-10-27 07:35:00
3:55 AM,71.6,62.6,73,29.55,8.0,NW,18.4,21.9,N/A,,Overcast,320,2012-10-27 07:55:00
4:15 AM,71.6,62.6,73,29.54,9.0,NW,17.3,20.7,N/A,,Overcast,320,2012-10-27 08:15:00
4:35 AM,71.6,62.6,73,29.54,8.0,NW,17.3,21.9,N/A,,Mostly Cloudy,320,2012-10-27 08:35:00
4:55 AM,69.8,62.6,78,29.54,10.0,NW,16.1,26.5,N/A,,Mostly Cloudy,310,2012-10-27 08:55:00
5:15 AM,69.8,62.6,78,29.54,8.0,NW,15.0,21.9,N/A,,Scattered Clouds,310,2012-10-27 09:15:00
5:55 AM,69.8,62.6,78,29.55,9.0,NW,16.1,23.0,N/A,,Overcast,310,2012-10-27 09:55:00
6:15 AM,69.8,62.6,78,29.55,9.0,NW,16.1,24.2,N/A,,Mostly Cloudy,310,2012-10-27 10:15:00
6:35 AM,69.8,62.6,78,29.55,9.0,NW,18.4,23.0,N/A,,Mostly Cloudy,320,2012-10-27 10:35:00
6:55 AM,68.0,62.6,83,29.56,9.0,NW,15.0,23.0,N/A,,Partly Cloudy,310,2012-10-27 10:55:00
7:15 AM,68.0,60.8,78,29.56,9.0,NW,18.4,25.3,N/A,,Mostly Cloudy,310,2012-10-27 11:15:00
7:35 AM,68.0,60.8,78,29.57,8.0,NW,16.1,24.2,N/A,,Mostly Cloudy,320,2012-10-27 11:35:00
7:55 AM,68.0,60.8,78,29.58,9.0,NW,15.0,26.5,N/A,,Mostly Cloudy,310,2012-10-27 11:55:00
8:15 AM,68.0,60.8,78,29.59,8.0,NW,18.4,26.5,N/A,,Overcast,310,2012-10-27 12:15:00
8:35 AM,68.0,60.8,78,29.60,9.0,NW,16.1,25.3,N/A,,Overcast,320,2012-10-27 12:35:00
8:55 AM,68.0,60.8,78,29.61,9.0,NW,15.0,27.6,N/A,,Overcast,310,2012-10-27 12:55:00
9:15 AM,68.0,60.8,78,29.60,9.0,NW,16.1,23.0,N/A,,Mostly Cloudy,310,2012-10-27 13:15:00
9:35 AM,69.8,60.8,73,29.60,10.0,NW,19.6,27.6,N/A,,Scattered Clouds,320,2012-10-27 13:35:00
9:55 AM,69.8,62.6,78,29.61,8.0,NW,18.4,28.8,N/A,,Partly Cloudy,320,2012-10-27 13:55:00
10:15 AM,69.8,62.6,78,29.62,8.0,NW,19.6,27.6,N/A,,Partly Cloudy,320,2012-10-27 14:15:00
10:35 AM,69.8,62.6,78,29.62,9.0,NW,17.3,25.3,N/A,,Partly Cloudy,320,2012-10-27 14:35:00
10:55 AM,69.8,62.6,78,29.63,9.0,NNW,18.4,25.3,N/A,,Mostly Cloudy,330,2012-10-27 14:55:00
11:15 AM,69.8,62.6,78,29.62,9.0,NW,19.6,26.5,N/A,,Mostly Cloudy,310,2012-10-27 15:15:00
11:55 AM,69.8,62.6,78,29.63,8.0,NW,15.0,24.2,N/A,,Overcast,310,2012-10-27 15:55:00
12:15 PM,69.8,62.6,78,29.63,9.0,NW,20.7,27.6,N/A,,Overcast,310,2012-10-27 16:15:00
12:35 PM,69.8,62.6,78,29.63,10.0,NW,16.1,21.9,N/A,,Overcast,310,2012-10-27 16:35:00
12:55 PM,69.8,62.6,78,29.63,8.0,NW,13.8,21.9,N/A,,Overcast,320,2012-10-27 16:55:00
1:15 PM,69.8,62.6,78,29.63,9.0,NW,17.3,25.3,N/A,,Overcast,310,2012-10-27 17:15:00
1:35 PM,69.8,62.6,78,29.62,8.0,WNW,18.4,-,N/A,,Overcast,300,2012-10-27 17:35:00
2:15 PM,71.6,62.6,73,29.60,8.0,NW,23.0,27.6,N/A,,Mostly Cloudy,310,2012-10-27 18:15:00
2:55 PM,71.6,60.8,69,29.59,9.0,NW,16.1,21.9,N/A,,Mostly Cloudy,310,2012-10-27 18:55:00
3:15 PM,71.6,60.8,69,29.58,9.0,NW,17.3,24.2,N/A,,Mostly Cloudy,310,2012-10-27 19:15:00
3:35 PM,71.6,62.6,73,29.58,7.0,WNW,15.0,24.2,N/A,,Partly Cloudy,300,2012-10-27 19:35:00
3:55 PM,71.6,60.8,69,29.58,9.0,WNW,15.0,24.2,N/A,,Clear,300,2012-10-27 19:55:00
4:15 PM,71.6,60.8,69,29.58,9.0,WNW,16.1,23.0,N/A,,Clear,300,2012-10-27 20:15:00
4:35 PM,71.6,62.6,73,29.59,9.0,NW,16.1,21.9,N/A,,Partly Cloudy,310,2012-10-27 20:35:00
4:55 PM,71.6,62.6,73,29.59,8.0,NW,11.5,23.0,N/A,,Mostly Cloudy,320,2012-10-27 20:55:00
5:15 PM,71.6,62.6,73,29.60,9.0,NW,12.7,-,N/A,,Overcast,310,2012-10-27 21:15:00
5:35 PM,71.6,62.6,73,29.60,9.0,WNW,16.1,21.9,N/A,,Mostly Cloudy,300,2012-10-27 21:35:00
5:55 PM,71.6,62.6,73,29.60,9.0,WNW,16.1,25.3,N/A,,Partly Cloudy,300,2012-10-27 21:55:00
6:15 PM,69.8,62.6,78,29.61,9.0,WNW,13.8,-,N/A,,Partly Cloudy,300,2012-10-27 22:15:00
6:35 PM,69.8,62.6,78,29.62,9.0,WNW,12.7,19.6,N/A,,Clear,300,2012-10-27 22:35:00
6:55 PM,69.8,62.6,78,29.62,10.0,NW,10.4,-,N/A,,Clear,310,2012-10-27 22:55:00
7:15 PM,69.8,62.6,78,29.63,9.0,WNW,8.1,-,N/A,,Clear,290,2012-10-27 23:15:00
7:35 PM,69.8,62.6,78,29.63,9.0,WNW,9.2,-,N/A,,Clear,300,2012-10-27 23:35:00
7:55 PM,69.8,62.6,78,29.64,10.0,WNW,10.4,-,N/A,,Clear,300,2012-10-27 23:55:00
8:15 PM,69.8,62.6,78,29.64,8.0,WNW,9.2,-,N/A,,Clear,290,2012-10-28 00:15:00
8:35 PM,69.8,62.6,78,29.65,9.0,WNW,8.1,-,N/A,,Clear,290,2012-10-28 00:35:00
8:55 PM,69.8,62.6,78,29.65,9.0,WNW,10.4,-,N/A,,Clear,290,2012-10-28 00:55:00
9:15 PM,69.8,62.6,78,29.66,10.0,WNW,10.4,-,N/A,,Clear,290,2012-10-28 01:15:00
9:35 PM,69.8,62.6,78,29.66,9.0,WNW,9.2,18.4,N/A,,Clear,300,2012-10-28 01:35:00
9:55 PM,69.8,60.8,73,29.67,9.0,WNW,12.7,-,N/A,,Clear,290,2012-10-28 01:55:00
10:15 PM,69.8,60.8,73,29.67,10.0,WNW,9.2,-,N/A,,Clear,290,2012-10-28 02:15:00
10:35 PM,69.8,60.8,73,29.68,10.0,WNW,8.1,-,N/A,,Clear,290,2012-10-28 02:35:00
10:55 PM,69.8,60.8,73,29.68,10.0,WNW,9.2,-,N/A,,Clear,290,2012-10-28 02:55:00